Showing default

EMISAT, 44078

Orbit data source: Space-Track

EMISAT, 44078 is a payload satellite owned by ISRO (IN) in SSO that was launched on Mon, 01 Apr 2019 UTC via a PSLV-QL launch vehicle from the Sirharikota (SRI). Payload-class satellites include a variety of spacecraft equipped with specific instruments for various scientific and technological missions. These include communications satellites like Starlink; space stations such as the ISS; scientific satellites like the Hubble; Earth observation satellites from companies like Planet Labs, Umbra, and HawkEye 360; GPS; miniature CubeSats for education and research; and military/defense satellites.

Loading next visibility...
Identifier
44078, 2019-018A
Orbit
SSO
Last TLE update
10 hours ago
Origin
Manufacturer
ISRO
Mission
Operational Defense Sigint
Bus & Motor
SSB-2, AOCS
Mass
436 kg wet, ~380 kg dry
Launch date (UTC)
2019-04-01 (6 years ago)
Launch vehicle
PSLV-QL
Launch site
Sirharikota (SRI)
Object type
Payload
Rocket body
Debris
Shape & HBR
Box + 2 Pan, 6 m
Radar Cross Section
4.485 m², Large (>1 m²)

Expand to show TLE details & history

TLE from 10 hours ago
0 EMISAT
1 44078U 19018A   25167.12833697  .00000222  00000-0  77713-4 0  9997
2 44078  98.2864 223.9411 0017271 238.5525 121.3977 14.43777300327235
Epoch: 2025-06-16T03:04Z
TLE epoch observation values (Epoch: 2025-06-16T03:04:48.314Z)
Latitude
-0.0001°
Longitude
-86.90372°
Altitude
755.433 km
Speed
7.473 km/s
True Right ascension
14h 55m 45s
True Declination
0° 00' 00"
Sunlit
Object was in full shadow at epoch
Visualization orbit readout
Latitude
33.97121°
Longitude
-92.09388°
Altitude
761.857 km
Speed
7.471 km/s
Apparent Right ascension
13h 21m 57s
Apparent Declination
0° 34' 17"
Sunlit
Object is in daylight
Visualization observer readout
Local Sidereal Time
23:52:51
Azimuth
327.106° NNW
Elevation
-45.733°
Doppler factor
1
Orbital elements
Apogee altitude
755.452 km
Perigee altitude
730.853 km
Semi-major axis
7,121.289 km
Eccentricity
0.00173
Inclination
98.2864°
RAAN
223.9411°
Arg. of periapsis
238.5525°
True anomaly
Unknown
Mean anomaly
121.3977°
Eccentric anomaly
Unknown
Mean motion
3.61165 °/min
Orbital period
99.68 mins
BSTAR
0.000077713
Loading maneuver chart data...
Loading SW <> Apogee altitude chart data...

EMISAT Visibility forecast

Observer location: undefined°, undefined°

Span
Click to sort rows by Start time (UTC) header in descending order
Start Az.
Max El. time (UTC)
Max El. Az.
Max El.
End time (UTC)
End Az.
4 mins2025-06-16 15:21:05.306Z69.996° E2025-06-16 15:23:05.306Z95.87° ESE13.315°2025-06-16 15:25:05.306Z120.12° SE
8 mins2025-06-16 16:58:05.306Z3.063° NNE2025-06-16 17:02:05.306Z262.17° W41.089°2025-06-16 17:06:05.306Z207.45° SW
4 mins2025-06-17 02:33:05.306Z84.817° E2025-06-17 02:34:05.306Z70.488° E17.053°2025-06-17 02:37:05.306Z29.374° NE
8 mins2025-06-17 04:09:05.306Z187.405° SSW2025-06-17 04:13:05.306Z277.653° WNW38.326°2025-06-17 04:17:05.306Z335.62° NNW
|